Weather History for Port Angeles, WA

Change the Weather History Date:

Wednesday, July 10, 2013

  Actual Average Record
Temperature  
Mean Temperature 56 °F -  
Max Temperature 62 °F 65 °F 91 °F (2007)
Min Temperature 52 °F 51 °F 44 °F (1987)
Degree Days  
Heating Degree Days 8    
Growing Degree Days 6 (Base 50)    
Moisture  
Dew Point 49 °F    
Average Humidity 76    
Maximum Humidity 93    
Minimum Humidity 62    
Precipitation  
Precipitation 0.00 in - - ()
Sea Level Pressure  
Sea Level Pressure 30.05 in    
Wind  
Wind Speed 11 mph (WNW)    
Max Wind Speed 16 mph    
Max Gust Speed 28 mph    
Visibility 10 miles    
Events      
Averages and records for this station are not official NWS values.
T = Trace of Precipitation, MM = Missing Value Source: NWS Daily Summary

Daily Weather History Graph

Daily Weather History Graph

Search for Another Location

Airport:

Trip Planner

Search our weather history database for the weather conditions in past years. The results will help you decide how hot, cold, wet, or windy it might be!

Date:

Astronomy

Jul. 10, 2013 Rise Set
Actual Time 5:25 AM PDT 9:13 PM PDT
Civil Twilight 4:45 AM PDT 9:53 PM PDT
Nautical Twilight 3:50 AM PDT 10:47 PM PDT
Astronomical Twilight 2:28 AM PDT 12:07 AM PDT
Moon 8:06 AM PDT (7/10) 10:08 PM PDT (7/10)
Length of Visible Light 17h 08m
Length of Day
15h 48m
Waxing Crescent, 6% of the Moon is Illuminated
Jul 10
Waxing Crescent
Jul 15
First Quarter
Jul 22
Full
Jul 29
Last Quarter
Aug 6
New

Hourly Weather History & Observations

Time (PDT) Temp. Dew Point Humidity Pressure Visibility Wind Dir Wind Speed Gust Speed Precip Events Conditions
12:53 AM 55.9 °F 50.0 °F 80% 30.06 in 10.0 mi West 12.7 mph - N/A   Clear
1:53 AM 54.0 °F 50.0 °F 86% 30.05 in 10.0 mi West 11.5 mph - N/A   Clear
2:53 AM 53.1 °F 50.0 °F 89% 30.05 in 10.0 mi WNW 12.7 mph - N/A   Clear
3:53 AM 53.1 °F 50.0 °F 89% 30.04 in 10.0 mi West 9.2 mph - N/A   Clear
4:53 AM 53.1 °F 50.0 °F 89% 30.05 in 10.0 mi West 11.5 mph - N/A   Clear
5:53 AM 52.0 °F 50.0 °F 93% 30.05 in 10.0 mi WNW 5.8 mph - N/A   Partly Cloudy
6:05 AM 52.0 °F 50.0 °F 93% 30.05 in 10.0 mi West 4.6 mph - N/A   Mostly Cloudy
6:53 AM 54.0 °F 51.1 °F 90% 30.06 in 10.0 mi WNW 4.6 mph - N/A   Overcast
7:53 AM 55.0 °F 51.1 °F 86% 30.06 in 10.0 mi NW 10.4 mph - N/A   Overcast
8:06 AM 55.0 °F 51.1 °F 86% 30.06 in 10.0 mi NW 8.1 mph - N/A   Overcast
8:53 AM 57.0 °F 51.1 °F 81% 30.07 in 10.0 mi NW 10.4 mph - N/A   Overcast
9:51 AM 59.0 °F 51.8 °F 77% 30.07 in 10.0 mi NW 8.1 mph - N/A   Scattered Clouds
9:53 AM 59.0 °F 52.0 °F 78% 30.08 in 10.0 mi WNW 9.2 mph - N/A   Partly Cloudy
10:53 AM 61.0 °F 52.0 °F 72% 30.08 in 10.0 mi NW 11.5 mph - N/A   Partly Cloudy
11:53 AM 61.0 °F 52.0 °F 72% 30.08 in 10.0 mi NNW 11.5 mph - N/A   Clear
12:53 PM 61.0 °F 51.1 °F 70% 30.07 in 10.0 mi NW 11.5 mph 21.9 mph N/A   Clear
1:53 PM 61.0 °F 50.0 °F 67% 30.06 in 10.0 mi NW 13.8 mph 26.5 mph N/A   Clear
2:53 PM 61.0 °F 48.9 °F 64% 30.06 in 10.0 mi NW 16.1 mph 24.2 mph N/A   Clear
3:53 PM 61.0 °F 48.0 °F 62% 30.06 in 10.0 mi NW 12.7 mph 26.5 mph N/A   Clear
4:53 PM 60.1 °F 46.9 °F 62% 30.05 in 10.0 mi NW 13.8 mph 25.3 mph N/A   Clear
5:53 PM 59.0 °F 46.0 °F 62% 30.03 in 10.0 mi NW 13.8 mph 27.6 mph N/A   Clear
6:53 PM 59.0 °F 48.0 °F 67% 30.01 in 10.0 mi NW 13.8 mph 21.9 mph N/A   Clear
7:53 PM 57.9 °F 46.9 °F 67% 30.01 in 10.0 mi WNW 12.7 mph 24.2 mph N/A   Clear
8:53 PM 55.9 °F 46.0 °F 69% 30.00 in 10.0 mi WNW 10.4 mph - N/A   Clear
9:53 PM 55.0 °F 45.0 °F 69% 30.00 in 10.0 mi West 12.7 mph - N/A   Clear
10:53 PM 55.0 °F 43.0 °F 64% 30.00 in 10.0 mi WNW 13.8 mph 21.9 mph N/A   Clear
11:53 PM 55.0 °F 44.1 °F 67% 30.00 in 10.0 mi West 16.1 mph 24.2 mph N/A   Clear